| time (UTC) | temp F | wind direction | speed MPH | gust MPH | rain 1hr in | rain 24hr in | rain mn in | humidity % | barometer mb |
| 20260901234049 | 70 | 311 | 2.0 | 2.0 | 0.00 | 0.00 | 0.00 | 63 | 1011.7 |
| 20260901233549 | 71 | 313 | 0.0 | 1.0 | 0.00 | 0.00 | 0.00 | 63 | 1011.7 |
| 20260901233045 | 71 | 299 | 1.0 | 1.0 | 0.00 | 0.00 | 0.00 | 63 | 1011.9 |
| 20260901232540 | 70 | 271 | 1.0 | 1.0 | 0.00 | 0.00 | 0.00 | 65 | 1012.0 |
| 20260901232035 | 71 | 316 | 2.0 | 2.0 | 0.00 | 0.00 | 0.00 | 65 | 1011.8 |
| 20260901231531 | 70 | 334 | 0.0 | 0.0 | 0.00 | 0.00 | 0.00 | 66 | 1011.8 |
| 20260901231028 | 70 | 281 | 1.0 | 2.0 | 0.00 | 0.00 | 0.00 | 67 | 1012.0 |
| 20260901230528 | 69 | 350 | 0.0 | 1.0 | 0.00 | 0.00 | 0.00 | 67 | 1011.9 |
| 20260901230023 | 70 | 299 | 5.0 | 6.0 | 0.00 | 0.00 | 0.00 | 65 | 1012.1 |
| 20260901225518 | 70 | 310 | 5.0 | 7.0 | 0.00 | 0.00 | 0.00 | 64 | 1012.0 |
| 20260901225012 | 69 | 297 | 1.0 | 2.0 | 0.00 | 0.00 | 0.00 | 65 | 1012.0 |
| 20260901224508 | 69 | 300 | 2.0 | 2.0 | 0.00 | 0.00 | 0.00 | 65 | 1012.0 |
| 20260901224004 | 69 | 314 | 1.0 | 1.0 | 0.00 | 0.00 | 0.00 | 64 | 1011.9 |
| 20260901223459 | 71 | 296 | 3.0 | 3.0 | 0.00 | 0.00 | 0.00 | 62 | 1012.2 |
| 20260901222955 | 70 | 318 | 0.0 | 0.0 | 0.00 | 0.00 | 0.00 | 65 | 1012.2 |
| 20260901222451 | 70 | 306 | 2.0 | 2.0 | 0.00 | 0.00 | 0.00 | 65 | 1012.1 |
| 20260901221947 | 69 | 302 | 1.0 | 1.0 | 0.00 | 0.00 | 0.00 | 66 | 1012.1 |
| 20260901221443 | 71 | 315 | 0.0 | 1.0 | 0.00 | 0.00 | 0.00 | 65 | 1012.1 |
| 20260901220943 | 71 | 301 | 1.0 | 2.0 | 0.00 | 0.00 | 0.00 | 65 | 1012.1 |
| 20260901220442 | 69 | 308 | 0.0 | 0.0 | 0.00 | 0.00 | 0.00 | 67 | 1012.1 |
| 20260901215940 | 69 | 313 | 0.0 | 0.0 | 0.00 | 0.00 | 0.00 | 68 | 1012.0 |
| 20260901215439 | 69 | 312 | 1.0 | 2.0 | 0.00 | 0.00 | 0.00 | 67 | 1012.1 |
| 20260901214939 | 68 | 306 | 0.0 | 0.0 | 0.00 | 0.00 | 0.00 | 68 | 1012.1 |
| 20260901214438 | 68 | 304 | 0.0 | 0.0 | 0.00 | 0.00 | 0.00 | 68 | 1012.3 |
| 20260901213938 | 68 | 314 | 0.0 | 0.0 | 0.00 | 0.00 | 0.00 | 69 | 1012.0 |
| 20260901213432 | 68 | 305 | 0.0 | 0.0 | 0.00 | 0.00 | 0.00 | 67 | 1012.1 |
| 20260901212931 | 69 | 311 | 1.0 | 1.0 | 0.00 | 0.00 | 0.00 | 66 | 1012.1 |
| 20260901212427 | 69 | 318 | 2.0 | 2.0 | 0.00 | 0.00 | 0.00 | 66 | 1012.1 |
| 20260901211924 | 69 | 306 | 0.0 | 1.0 | 0.00 | 0.00 | 0.00 | 67 | 1012.1 |
| 20260901211419 | 69 | 311 | 0.0 | 0.0 | 0.00 | 0.00 | 0.00 | 65 | 1012.1 |
| 20260901210915 | 69 | 309 | 0.0 | 0.0 | 0.00 | 0.00 | 0.00 | 66 | 1012.0 |
| 20260901210410 | 69 | 312 | 0.0 | 1.0 | 0.00 | 0.00 | 0.00 | 67 | 1012.2 |
| 20260901205907 | 69 | 310 | 0.0 | 0.0 | 0.00 | 0.00 | 0.00 | 67 | 1012.3 |
| 20260901205401 | 69 | 305 | 0.0 | 0.0 | 0.00 | 0.00 | 0.00 | 68 | 1012.2 |
| 20260901204856 | 69 | 300 | 1.0 | 1.0 | 0.00 | 0.00 | 0.00 | 69 | 1012.2 |
| 20260901204353 | 69 | 319 | 0.0 | 0.0 | 0.00 | 0.00 | 0.00 | 66 | 1012.2 |
| 20260901203852 | 70 | 306 | 0.0 | 0.0 | 0.00 | 0.00 | 0.00 | 66 | 1012.5 |
| 20260901203346 | 69 | 308 | 0.0 | 0.0 | 0.00 | 0.00 | 0.00 | 68 | 1012.5 |
| 20260901202842 | 69 | 322 | 0.0 | 0.0 | 0.00 | 0.00 | 0.00 | 66 | 1012.4 |
| 20260901202336 | 69 | 313 | 0.0 | 1.0 | 0.00 | 0.00 | 0.00 | 69 | 1012.5 |
| 20260901201833 | 68 | 308 | 0.0 | 0.0 | 0.00 | 0.00 | 0.00 | 71 | 1012.4 |
| 20260901201332 | 68 | 301 | 1.0 | 1.0 | 0.00 | 0.00 | 0.00 | 72 | 1012.4 |
| 20260901200826 | 67 | 326 | 0.0 | 1.0 | 0.00 | 0.00 | 0.00 | 71 | 1012.4 |
| 20260901200321 | 67 | 313 | 0.0 | 0.0 | 0.00 | 0.00 | 0.00 | 73 | 1012.4 |
| 20260901195820 | 67 | 314 | 0.0 | 0.0 | 0.00 | 0.00 | 0.00 | 74 | 1012.3 |
| 20260901195313 | 66 | 334 | 0.0 | 0.0 | 0.00 | 0.00 | 0.00 | 75 | 1012.3 |
| 20260901194809 | 66 | 322 | 1.0 | 1.0 | 0.00 | 0.00 | 0.00 | 76 | 1012.5 |
| 20260901194303 | 66 | 325 | 0.0 | 0.0 | 0.00 | 0.00 | 0.00 | 76 | 1012.5 |
| 20260901193800 | 67 | 352 | 0.0 | 1.0 | 0.00 | 0.00 | 0.00 | 73 | 1012.5 |
| 20260901193258 | 67 | 325 | 0.0 | 0.0 | 0.00 | 0.00 | 0.00 | 74 | 1012.7 |
| 20260901192753 | 67 | 313 | 1.0 | 1.0 | 0.00 | 0.00 | 0.00 | 73 | 1012.6 |
| 20260901192249 | 67 | 292 | 0.0 | 0.0 | 0.00 | 0.00 | 0.00 | 72 | 1012.7 |
| 20260901191744 | 68 | 261 | 1.0 | 1.0 | 0.00 | 0.00 | 0.00 | 72 | 1012.7 |
| 20260901191240 | 68 | 330 | 0.0 | 0.0 | 0.00 | 0.00 | 0.00 | 72 | 1012.9 |
| 20260901190736 | 68 | 313 | 0.0 | 0.0 | 0.00 | 0.00 | 0.00 | 73 | 1012.9 |
| 20260901190230 | 67 | 311 | 0.0 | 0.0 | 0.00 | 0.00 | 0.00 | 74 | 1013.1 |
| 20260901185728 | 67 | 307 | 1.0 | 1.0 | 0.00 | 0.00 | 0.00 | 75 | 1012.9 |
| 20260901185227 | 66 | 319 | 0.0 | 0.0 | 0.00 | 0.00 | 0.00 | 77 | 1013.0 |
| 20260901184723 | 65 | 334 | 1.0 | 1.0 | 0.00 | 0.00 | 0.00 | 76 | 1012.8 |
| 20260901184218 | 67 | 212 | 1.0 | 2.0 | 0.00 | 0.00 | 0.00 | 74 | 1013.1 |
| 20260901183714 | 67 | 317 | 0.0 | 1.0 | 0.00 | 0.00 | 0.00 | 74 | 1012.9 |
| 20260901183213 | 67 | 316 | 0.0 | 0.0 | 0.00 | 0.00 | 0.00 | 74 | 1013.0 |
| 20260901182710 | 66 | 319 | 0.0 | 1.0 | 0.00 | 0.00 | 0.00 | 77 | 1013.1 |
| 20260901182208 | 66 | 311 | 0.0 | 0.0 | 0.00 | 0.00 | 0.00 | 77 | 1013.3 |
| 20260901181704 | 65 | 311 | 0.0 | 1.0 | 0.00 | 0.00 | 0.00 | 79 | 1013.3 |
| 20260901181204 | 66 | 311 | 0.0 | 0.0 | 0.00 | 0.00 | 0.00 | 79 | 1013.0 |
| 20260901180703 | 65 | 329 | 0.0 | 0.0 | 0.00 | 0.00 | 0.00 | 80 | 1013.3 |
| 20260901180157 | 65 | 312 | 0.0 | 0.0 | 0.00 | 0.00 | 0.00 | 81 | 1013.1 |
| 20260901175657 | 65 | 304 | 3.0 | 3.0 | 0.00 | 0.00 | 0.00 | 82 | 1013.4 |
| 20260901175157 | 64 | 268 | 1.0 | 1.0 | 0.00 | 0.00 | 0.00 | 84 | 1013.3 |
| 20260901174652 | 63 | 310 | 3.0 | 3.0 | 0.00 | 0.00 | 0.00 | 84 | 1013.3 |
| 20260901174148 | 63 | 26 | 1.0 | 1.0 | 0.00 | 0.00 | 0.00 | 86 | 1013.3 |
| 20260901173643 | 62 | 309 | 0.0 | 0.0 | 0.00 | 0.00 | 0.00 | 89 | 1013.3 |
| 20260901173138 | 62 | 314 | 1.0 | 1.0 | 0.00 | 0.00 | 0.00 | 89 | 1013.2 |
| 20260901172634 | 62 | 314 | 1.0 | 1.0 | 0.00 | 0.00 | 0.00 | 89 | 1013.3 |
| 20260901172132 | 62 | 312 | 2.0 | 2.0 | 0.00 | 0.00 | 0.00 | 89 | 1013.1 |
| 20260901171632 | 62 | 322 | 0.0 | 0.0 | 0.00 | 0.00 | 0.00 | 90 | 1013.1 |
| 20260901171131 | 61 | 313 | 0.0 | 0.0 | 0.00 | 0.00 | 0.00 | 91 | 1013.0 |
| 20260901170631 | 61 | 311 | 0.0 | 0.0 | 0.00 | 0.00 | 0.00 | 92 | 1013.2 |
| 20260901170126 | 61 | 302 | 0.0 | 0.0 | 0.00 | 0.00 | 0.00 | 92 | 1013.1 |
| 20260901165625 | 61 | 318 | 0.0 | 0.0 | 0.00 | 0.00 | 0.00 | 92 | 1013.1 |
| 20260901165120 | 61 | 311 | 0.0 | 0.0 | 0.00 | 0.00 | 0.00 | 93 | 1013.3 |
| 20260901164616 | 60 | 313 | 0.0 | 0.0 | 0.00 | 0.00 | 0.00 | 94 | 1013.0 |
| 20260901164111 | 60 | 278 | 0.0 | 0.0 | 0.00 | 0.00 | 0.00 | 94 | 1013.2 |
| 20260901163606 | 60 | 317 | 0.0 | 0.0 | 0.00 | 0.00 | 0.00 | 94 | 1013.1 |
| 20260901163059 | 60 | 319 | 0.0 | 0.0 | 0.00 | 0.00 | 0.00 | 93 | 1013.3 |
| 20260901162555 | 60 | 326 | 0.0 | 0.0 | 0.00 | 0.00 | 0.00 | 92 | 1013.2 |
| 20260901162054 | 60 | 313 | 0.0 | 1.0 | 0.00 | 0.00 | 0.00 | 91 | 1013.2 |
| 20260901161553 | 60 | 318 | 0.0 | 0.0 | 0.00 | 0.00 | 0.00 | 91 | 1013.1 |
| 20260901161053 | 60 | 320 | 0.0 | 0.0 | 0.00 | 0.00 | 0.00 | 91 | 1012.9 |
| 20260901160549 | 60 | 329 | 0.0 | 0.0 | 0.00 | 0.00 | 0.00 | 91 | 1013.0 |
| 20260901160044 | 60 | 318 | 0.0 | 1.0 | 0.00 | 0.00 | 0.00 | 91 | 1013.2 |
| 20260901155543 | 60 | 323 | 0.0 | 0.0 | 0.00 | 0.00 | 0.00 | 92 | 1013.0 |
| 20260901155039 | 60 | 309 | 1.0 | 1.0 | 0.00 | 0.00 | 0.00 | 91 | 1013.0 |
| 20260901154539 | 60 | 317 | 0.0 | 0.0 | 0.00 | 0.00 | 0.00 | 91 | 1013.1 |
| 20260901154034 | 60 | 308 | 0.0 | 0.0 | 0.00 | 0.00 | 0.00 | 91 | 1013.3 |
| 20260901153529 | 60 | 302 | 0.0 | 0.0 | 0.00 | 0.00 | 0.00 | 91 | 1013.2 |
| 20260901153029 | 60 | 317 | 1.0 | 1.0 | 0.00 | 0.00 | 0.00 | 90 | 1013.1 |
| 20260901152529 | 60 | 324 | 0.0 | 0.0 | 0.00 | 0.00 | 0.00 | 90 | 1013.2 |
| 20260901152028 | 60 | 311 | 0.0 | 1.0 | 0.00 | 0.00 | 0.00 | 89 | 1013.0 |
| 20260901151524 | 60 | 307 | 0.0 | 0.0 | 0.00 | 0.00 | 0.00 | 88 | 1012.8 |
| 20260901151023 | 60 | 312 | 0.0 | 0.0 | 0.00 | 0.00 | 0.00 | 87 | 1012.9 |
| 20260901150521 | 60 | 314 | 0.0 | 0.0 | 0.00 | 0.00 | 0.00 | 87 | 1012.8 |
| 20260901150020 | 60 | 311 | 0.0 | 1.0 | 0.00 | 0.00 | 0.00 | 87 | 1012.8 |
| 20260901145513 | 60 | 320 | 0.0 | 0.0 | 0.00 | 0.00 | 0.00 | 87 | 1012.7 |
| 20260901145013 | 60 | 318 | 0.0 | 0.0 | 0.00 | 0.00 | 0.00 | 86 | 1012.7 |
| 20260901144508 | 60 | 308 | 0.0 | 0.0 | 0.00 | 0.00 | 0.00 | 86 | 1012.7 |
| 20260901144003 | 60 | 305 | 0.0 | 1.0 | 0.00 | 0.00 | 0.00 | 86 | 1012.7 |
| 20260901143459 | 60 | 314 | 0.0 | 0.0 | 0.00 | 0.00 | 0.00 | 86 | 1012.6 |
| 20260901142955 | 60 | 314 | 0.0 | 1.0 | 0.00 | 0.00 | 0.00 | 86 | 1012.8 |
| 20260901142450 | 60 | 311 | 0.0 | 0.0 | 0.00 | 0.00 | 0.00 | 86 | 1012.6 |
| 20260901141945 | 60 | 314 | 0.0 | 0.0 | 0.00 | 0.00 | 0.00 | 86 | 1012.7 |
| 20260901141444 | 60 | 288 | 0.0 | 0.0 | 0.00 | 0.00 | 0.00 | 87 | 1012.5 |
| 20260901140940 | 60 | 286 | 0.0 | 0.0 | 0.00 | 0.00 | 0.00 | 87 | 1012.6 |
| 20260901140437 | 60 | 286 | 0.0 | 0.0 | 0.00 | 0.00 | 0.00 | 87 | 1012.5 |
| 20260901135932 | 59 | 252 | 1.0 | 2.0 | 0.00 | 0.00 | 0.00 | 87 | 1012.7 |
| 20260901135427 | 59 | 310 | 0.0 | 0.0 | 0.00 | 0.00 | 0.00 | 87 | 1012.4 |
| 20260901134923 | 59 | 292 | 0.0 | 0.0 | 0.00 | 0.00 | 0.00 | 88 | 1012.3 |
| 20260901134419 | 59 | 308 | 0.0 | 0.0 | 0.00 | 0.00 | 0.00 | 88 | 1012.2 |
| 20260901133918 | 59 | 308 | 0.0 | 0.0 | 0.00 | 0.00 | 0.00 | 88 | 1012.3 |
| 20260901133418 | 59 | 308 | 0.0 | 0.0 | 0.00 | 0.00 | 0.00 | 88 | 1012.3 |
| 20260901132916 | 59 | 302 | 0.0 | 0.0 | 0.00 | 0.00 | 0.00 | 88 | 1012.5 |
| 20260901132411 | 59 | 303 | 0.0 | 0.0 | 0.00 | 0.00 | 0.00 | 89 | 1012.3 |
| 20260901131910 | 59 | 303 | 0.0 | 0.0 | 0.00 | 0.00 | 0.00 | 89 | 1012.3 |
| 20260901131410 | 59 | 303 | 0.0 | 0.0 | 0.00 | 0.00 | 0.00 | 89 | 1012.4 |
| 20260901130906 | 59 | 304 | 0.0 | 0.0 | 0.00 | 0.00 | 0.00 | 90 | 1012.4 |
| 20260901130400 | 58 | 303 | 0.0 | 0.0 | 0.00 | 0.00 | 0.00 | 90 | 1012.3 |
| 20260901125858 | 58 | 302 | 0.0 | 0.0 | 0.00 | 0.00 | 0.00 | 90 | 1012.3 |
| 20260901125357 | 58 | 285 | 0.0 | 0.0 | 0.00 | 0.00 | 0.00 | 90 | 1012.4 |
| 20260901124852 | 58 | 285 | 0.0 | 0.0 | 0.00 | 0.00 | 0.00 | 90 | 1012.3 |
| 20260901124347 | 58 | 285 | 0.0 | 0.0 | 0.00 | 0.00 | 0.00 | 90 | 1012.2 |
| 20260901123847 | 58 | 285 | 0.0 | 0.0 | 0.00 | 0.00 | 0.00 | 90 | 1012.3 |
| 20260901123342 | 58 | 285 | 0.0 | 0.0 | 0.00 | 0.00 | 0.00 | 90 | 1012.0 |
| 20260901122840 | 58 | 280 | 0.0 | 1.0 | 0.00 | 0.00 | 0.00 | 90 | 1012.2 |
| 20260901122335 | 58 | 294 | 0.0 | 0.0 | 0.00 | 0.00 | 0.00 | 90 | 1012.3 |
| 20260901121834 | 58 | 294 | 0.0 | 0.0 | 0.00 | 0.00 | 0.00 | 90 | 1012.1 |
| 20260901121330 | 58 | 293 | 0.0 | 0.0 | 0.00 | 0.00 | 0.00 | 90 | 1012.3 |
| 20260901120825 | 58 | 293 | 0.0 | 0.0 | 0.00 | 0.00 | 0.00 | 90 | 1012.3 |
| 20260901120319 | 58 | 330 | 0.0 | 0.0 | 0.00 | 0.00 | 0.00 | 90 | 1012.2 |
| 20260901115815 | 58 | 330 | 0.0 | 0.0 | 0.00 | 0.00 | 0.00 | 90 | 1012.3 |
| 20260901115310 | 58 | 331 | 0.0 | 0.0 | 0.00 | 0.00 | 0.00 | 90 | 1012.2 |
| 20260901114808 | 58 | 331 | 0.0 | 0.0 | 0.00 | 0.00 | 0.00 | 90 | 1012.2 |
| 20260901114302 | 58 | 307 | 0.0 | 0.0 | 0.00 | 0.00 | 0.00 | 90 | 1012.3 |
| 20260901113801 | 58 | 289 | 0.0 | 0.0 | 0.00 | 0.00 | 0.00 | 91 | 1012.1 |
| 20260901113255 | 58 | 296 | 0.0 | 0.0 | 0.00 | 0.00 | 0.00 | 91 | 1012.3 |
| 20260901112750 | 58 | 297 | 0.0 | 0.0 | 0.00 | 0.00 | 0.00 | 91 | 1012.2 |
| 20260901112249 | 58 | 296 | 0.0 | 0.0 | 0.00 | 0.00 | 0.00 | 91 | 1012.2 |
| 20260901111744 | 58 | 296 | 0.0 | 1.0 | 0.00 | 0.00 | 0.00 | 91 | 1012.0 |
| 20260901111243 | 57 | 300 | 0.0 | 0.0 | 0.00 | 0.00 | 0.00 | 91 | 1012.0 |
| 20260901110737 | 57 | 306 | 0.0 | 1.0 | 0.00 | 0.00 | 0.00 | 92 | 1012.2 |
| 20260901110233 | 57 | 316 | 0.0 | 0.0 | 0.00 | 0.00 | 0.00 | 92 | 1012.0 |
| 20260901105730 | 57 | 316 | 0.0 | 0.0 | 0.00 | 0.00 | 0.00 | 91 | 1012.1 |
| 20260901105229 | 57 | 316 | 0.0 | 0.0 | 0.00 | 0.00 | 0.00 | 90 | 1012.1 |
| 20260901104725 | 58 | 316 | 0.0 | 0.0 | 0.00 | 0.00 | 0.00 | 90 | 1012.1 |
| 20260901104226 | 58 | 308 | 0.0 | 0.0 | 0.00 | 0.00 | 0.00 | 90 | 1011.9 |
| 20260901103725 | 58 | 307 | 1.0 | 1.0 | 0.00 | 0.00 | 0.00 | 90 | 1011.8 |
| 20260901103220 | 58 | 300 | 0.0 | 0.0 | 0.00 | 0.00 | 0.00 | 89 | 1011.9 |
| 20260901102715 | 58 | 301 | 0.0 | 0.0 | 0.00 | 0.00 | 0.00 | 89 | 1011.9 |
| 20260901102214 | 58 | 302 | 0.0 | 0.0 | 0.00 | 0.00 | 0.00 | 89 | 1011.9 |
| 20260901101711 | 58 | 301 | 0.0 | 0.0 | 0.00 | 0.00 | 0.00 | 89 | 1011.9 |
| 20260901101211 | 58 | 288 | 0.0 | 0.0 | 0.00 | 0.00 | 0.00 | 90 | 1012.2 |
| 20260901100705 | 58 | 302 | 0.0 | 0.0 | 0.00 | 0.00 | 0.00 | 90 | 1011.8 |
| 20260901100159 | 58 | 304 | 0.0 | 0.0 | 0.00 | 0.00 | 0.00 | 90 | 1012.1 |
| 20260901095658 | 57 | 322 | 0.0 | 0.0 | 0.00 | 0.00 | 0.00 | 90 | 1011.9 |
| 20260901095156 | 57 | 322 | 0.0 | 1.0 | 0.00 | 0.00 | 0.00 | 91 | 1011.8 |
| 20260901094651 | 57 | 322 | 0.0 | 0.0 | 0.00 | 0.00 | 0.00 | 90 | 1011.7 |
| 20260901094150 | 58 | 322 | 0.0 | 0.0 | 0.00 | 0.00 | 0.00 | 90 | 1012.0 |
| 20260901093645 | 58 | 323 | 0.0 | 0.0 | 0.00 | 0.00 | 0.00 | 90 | 1011.9 |
| 20260901093144 | 58 | 317 | 0.0 | 0.0 | 0.00 | 0.00 | 0.00 | 90 | 1011.8 |
| 20260901092640 | 58 | 317 | 0.0 | 0.0 | 0.00 | 0.00 | 0.00 | 90 | 1011.5 |
| 20260901092136 | 58 | 317 | 0.0 | 0.0 | 0.00 | 0.00 | 0.00 | 90 | 1011.5 |
| 20260901091632 | 58 | 318 | 0.0 | 0.0 | 0.00 | 0.00 | 0.00 | 90 | 1011.6 |
| 20260901091126 | 58 | 306 | 0.0 | 0.0 | 0.00 | 0.00 | 0.00 | 90 | 1011.6 |
| 20260901090621 | 57 | 306 | 0.0 | 0.0 | 0.00 | 0.00 | 0.00 | 90 | 1011.3 |
| 20260901090117 | 58 | 306 | 0.0 | 0.0 | 0.00 | 0.00 | 0.00 | 89 | 1011.5 |
| 20260901085612 | 58 | 306 | 0.0 | 0.0 | 0.00 | 0.00 | 0.00 | 89 | 1011.5 |
| 20260901085108 | 58 | 306 | 0.0 | 0.0 | 0.00 | 0.00 | 0.00 | 88 | 1011.3 |
| 20260901084604 | 58 | 306 | 0.0 | 0.0 | 0.00 | 0.00 | 0.00 | 88 | 1011.4 |
| 20260901084100 | 59 | 306 | 0.0 | 0.0 | 0.00 | 0.00 | 0.00 | 87 | 1011.1 |
| 20260901083554 | 59 | 306 | 0.0 | 0.0 | 0.00 | 0.00 | 0.00 | 86 | 1011.3 |
| 20260901083052 | 59 | 306 | 0.0 | 0.0 | 0.00 | 0.00 | 0.00 | 86 | 1011.1 |
| 20260901082547 | 59 | 306 | 0.0 | 0.0 | 0.00 | 0.00 | 0.00 | 86 | 1011.3 |
| 20260901082043 | 59 | 295 | 0.0 | 0.0 | 0.00 | 0.00 | 0.00 | 86 | 1011.4 |
| 20260901081538 | 60 | 295 | 0.0 | 0.0 | 0.00 | 0.00 | 0.00 | 86 | 1011.4 |
| 20260901081033 | 60 | 295 | 0.0 | 0.0 | 0.00 | 0.00 | 0.00 | 86 | 1011.5 |
| 20260901080532 | 60 | 294 | 0.0 | 0.0 | 0.00 | 0.00 | 0.00 | 86 | 1011.4 |
| 20260901080032 | 60 | 295 | 1.0 | 1.0 | 0.00 | 0.00 | 0.00 | 86 | 1011.3 |
| 20260901075528 | 60 | 294 | 0.0 | 0.0 | 0.00 | 0.00 | 0.00 | 86 | 1011.3 |
| 20260901075027 | 60 | 293 | 0.0 | 0.0 | 0.00 | 0.00 | 0.00 | 85 | 1011.3 |
| 20260901074526 | 60 | 293 | 0.0 | 0.0 | 0.00 | 0.00 | 0.00 | 84 | 1011.1 |
| 20260901074022 | 61 | 293 | 0.0 | 0.0 | 0.00 | 0.00 | 0.00 | 83 | 1011.1 |
| 20260901073518 | 61 | 293 | 0.0 | 0.0 | 0.00 | 0.00 | 0.00 | 82 | 1011.0 |
| 20260901073013 | 62 | 293 | 0.0 | 0.0 | 0.00 | 0.00 | 0.00 | 82 | 1010.9 |
| 20260901072508 | 62 | 293 | 0.0 | 0.0 | 0.00 | 0.00 | 0.00 | 81 | 1010.8 |
| 20260901072003 | 62 | 288 | 0.0 | 0.0 | 0.00 | 0.00 | 0.00 | 80 | 1010.8 |
| 20260901071503 | 63 | 287 | 0.0 | 0.0 | 0.00 | 0.00 | 0.00 | 79 | 1010.8 |
| 20260901071001 | 63 | 283 | 0.0 | 1.0 | 0.00 | 0.00 | 0.00 | 79 | 1010.7 |
| 20260901070457 | 63 | 286 | 0.0 | 0.0 | 0.00 | 0.00 | 0.00 | 78 | 1010.7 |
| 20260901065955 | 64 | 291 | 0.0 | 0.0 | 0.00 | 0.00 | 0.00 | 77 | 1010.6 |
| 20260901065451 | 64 | 279 | 0.0 | 0.0 | 0.00 | 0.00 | 0.00 | 77 | 1010.7 |
| 20260901064940 | 64 | 261 | 1.0 | 1.0 | 0.00 | 0.00 | 0.00 | 77 | 1010.6 |
| 20260901064436 | 64 | 295 | 0.0 | 1.0 | 0.00 | 0.00 | 0.00 | 76 | 1010.3 |
| 20260901063934 | 65 | 295 | 0.0 | 1.0 | 0.00 | 0.00 | 0.00 | 76 | 1010.3 |
| 20260901063430 | 65 | 278 | 1.0 | 1.0 | 0.00 | 0.00 | 0.00 | 75 | 1010.3 |
| 20260901062926 | 65 | 305 | 0.0 | 0.0 | 0.00 | 0.00 | 0.00 | 75 | 1010.2 |
| 20260901062421 | 65 | 321 | 0.0 | 1.0 | 0.00 | 0.00 | 0.00 | 75 | 1010.1 |
| 20260901061917 | 65 | 299 | 0.0 | 0.0 | 0.00 | 0.00 | 0.00 | 74 | 1009.9 |
| 20260901061413 | 65 | 294 | 0.0 | 0.0 | 0.00 | 0.00 | 0.00 | 74 | 1010.0 |
| 20260901060907 | 66 | 282 | 1.0 | 1.0 | 0.00 | 0.00 | 0.00 | 73 | 1009.9 |
| 20260901060403 | 66 | 270 | 1.0 | 1.0 | 0.00 | 0.00 | 0.00 | 73 | 1009.9 |
| 20260901055902 | 66 | 295 | 0.0 | 1.0 | 0.00 | 0.00 | 0.00 | 72 | 1009.8 |
| 20260901055359 | 66 | 297 | 0.0 | 0.0 | 0.00 | 0.00 | 0.00 | 72 | 1009.7 |
| 20260901054855 | 66 | 299 | 0.0 | 0.0 | 0.00 | 0.00 | 0.00 | 71 | 1009.8 |
| 20260901054352 | 67 | 286 | 1.0 | 1.0 | 0.00 | 0.00 | 0.00 | 71 | 1009.8 |
| 20260901053848 | 66 | 285 | 1.0 | 1.0 | 0.00 | 0.00 | 0.00 | 71 | 1009.7 |
| 20260901053343 | 66 | 296 | 0.0 | 0.0 | 0.00 | 0.00 | 0.00 | 72 | 1009.8 |
| 20260901052838 | 66 | 291 | 0.0 | 0.0 | 0.00 | 0.00 | 0.00 | 72 | 1009.6 |
| 20260901052334 | 66 | 306 | 1.0 | 1.0 | 0.00 | 0.00 | 0.00 | 72 | 1009.4 |
| 20260901051832 | 66 | 314 | 0.0 | 0.0 | 0.00 | 0.00 | 0.00 | 72 | 1009.6 |
| 20260901051327 | 65 | 295 | 0.0 | 0.0 | 0.00 | 0.00 | 0.00 | 73 | 1009.5 |
| 20260901050823 | 66 | 295 | 0.0 | 0.0 | 0.00 | 0.00 | 0.00 | 72 | 1009.4 |
| 20260901050318 | 66 | 295 | 0.0 | 0.0 | 0.00 | 0.00 | 0.00 | 71 | 1009.4 |
| 20260901045813 | 66 | 295 | 0.0 | 0.0 | 0.00 | 0.00 | 0.00 | 71 | 1009.4 |
| 20260901045307 | 66 | 295 | 0.0 | 0.0 | 0.00 | 0.00 | 0.00 | 71 | 1009.3 |
| 20260901044803 | 67 | 295 | 0.0 | 0.0 | 0.00 | 0.00 | 0.00 | 70 | 1009.2 |
| 20260901044259 | 67 | 295 | 0.0 | 0.0 | 0.00 | 0.00 | 0.00 | 69 | 1009.2 |
| 20260901043754 | 67 | 295 | 0.0 | 0.0 | 0.00 | 0.00 | 0.00 | 70 | 1009.1 |
| 20260901043251 | 67 | 295 | 0.0 | 0.0 | 0.00 | 0.00 | 0.00 | 70 | 1009.1 |
| 20260901042750 | 66 | 295 | 0.0 | 0.0 | 0.00 | 0.00 | 0.00 | 71 | 1008.9 |
| 20260901042245 | 67 | 295 | 0.0 | 0.0 | 0.00 | 0.00 | 0.00 | 70 | 1008.9 |
| 20260901041740 | 67 | 295 | 0.0 | 0.0 | 0.00 | 0.00 | 0.00 | 70 | 1008.9 |
| 20260901041240 | 67 | 295 | 0.0 | 0.0 | 0.00 | 0.00 | 0.00 | 69 | 1008.9 |
| 20260901040735 | 67 | 295 | 0.0 | 0.0 | 0.00 | 0.00 | 0.00 | 69 | 1008.8 |
| 20260901040234 | 68 | 295 | 0.0 | 0.0 | 0.00 | 0.00 | 0.00 | 68 | 1008.6 |
| 20260901035733 | 68 | 295 | 0.0 | 0.0 | 0.00 | 0.00 | 0.00 | 67 | 1008.5 |
| 20260901035232 | 68 | 295 | 0.0 | 0.0 | 0.00 | 0.00 | 0.00 | 67 | 1008.5 |
| 20260901034731 | 68 | 295 | 0.0 | 0.0 | 0.00 | 0.00 | 0.00 | 67 | 1008.4 |
| 20260901034226 | 69 | 295 | 0.0 | 0.0 | 0.00 | 0.00 | 0.00 | 66 | 1008.3 |
| 20260901033726 | 69 | 295 | 0.0 | 0.0 | 0.00 | 0.00 | 0.00 | 66 | 1008.3 |
| 20260901033225 | 68 | 295 | 0.0 | 0.0 | 0.00 | 0.00 | 0.00 | 67 | 1008.2 |
| 20260901032724 | 69 | 295 | 0.0 | 0.0 | 0.00 | 0.00 | 0.00 | 65 | 1008.0 |
| 20260901032218 | 69 | 295 | 0.0 | 0.0 | 0.00 | 0.00 | 0.00 | 64 | 1008.0 |
| 20260901031714 | 70 | 295 | 0.0 | 0.0 | 0.00 | 0.00 | 0.00 | 63 | 1007.9 |
| 20260901031210 | 71 | 295 | 0.0 | 0.0 | 0.00 | 0.00 | 0.00 | 62 | 1008.0 |
| 20260901030704 | 72 | 295 | 0.0 | 0.0 | 0.00 | 0.00 | 0.00 | 60 | 1007.8 |
| 20260901030159 | 72 | 295 | 0.0 | 0.0 | 0.00 | 0.00 | 0.00 | 60 | 1008.1 |
| 20260901025654 | 71 | 295 | 0.0 | 0.0 | 0.00 | 0.00 | 0.00 | 61 | 1008.0 |
| 20260901025149 | 72 | 295 | 0.0 | 0.0 | 0.00 | 0.00 | 0.00 | 60 | 1007.9 |
| 20260901024648 | 73 | 295 | 0.0 | 0.0 | 0.00 | 0.00 | 0.00 | 58 | 1008.0 |
| 20260901024148 | 73 | 295 | 0.0 | 0.0 | 0.00 | 0.00 | 0.00 | 57 | 1008.0 |
| 20260901023646 | 74 | 295 | 0.0 | 0.0 | 0.00 | 0.00 | 0.00 | 53 | 1007.9 |
| 20260901023141 | 75 | 295 | 0.0 | 0.0 | 0.00 | 0.00 | 0.00 | 52 | 1007.9 |
| 20260901022636 | 76 | 295 | 0.0 | 0.0 | 0.00 | 0.00 | 0.00 | 50 | 1007.9 |
| 20260901022131 | 77 | 295 | 0.0 | 0.0 | 0.00 | 0.00 | 0.00 | 50 | 1008.1 |
| 20260901021627 | 77 | 296 | 0.0 | 0.0 | 0.00 | 0.00 | 0.00 | 48 | 1007.9 |
| 20260901021122 | 78 | 296 | 0.0 | 0.0 | 0.00 | 0.00 | 0.00 | 48 | 1007.8 |
| 20260901020618 | 79 | 296 | 0.0 | 0.0 | 0.00 | 0.00 | 0.00 | 47 | 1007.7 |
| 20260901020113 | 79 | 294 | 0.0 | 0.0 | 0.00 | 0.00 | 0.00 | 47 | 1007.9 |
| 20260901015608 | 80 | 294 | 0.0 | 0.0 | 0.00 | 0.00 | 0.00 | 46 | 1007.9 |
| 20260901015108 | 80 | 293 | 0.0 | 0.0 | 0.00 | 0.00 | 0.00 | 46 | 1007.9 |
| 20260901014603 | 81 | 301 | 0.0 | 0.0 | 0.00 | 0.00 | 0.00 | 46 | 1007.6 |
| 20260901014059 | 81 | 301 | 0.0 | 0.0 | 0.00 | 0.00 | 0.00 | 45 | 1007.6 |
| 20260901013554 | 81 | 302 | 0.0 | 0.0 | 0.00 | 0.00 | 0.00 | 45 | 1007.7 |
| 20260901013050 | 81 | 303 | 0.0 | 0.0 | 0.00 | 0.00 | 0.00 | 46 | 1007.8 |
| 20260901012550 | 81 | 302 | 0.0 | 0.0 | 0.00 | 0.00 | 0.00 | 45 | 1007.8 |
| 20260901012045 | 81 | 304 | 0.0 | 0.0 | 0.00 | 0.00 | 0.00 | 47 | 1008.1 |
| 20260901011542 | 82 | 304 | 0.0 | 0.0 | 0.00 | 0.00 | 0.00 | 45 | 1007.8 |
| 20260901011039 | 82 | 300 | 0.0 | 0.0 | 0.00 | 0.00 | 0.00 | 45 | 1007.9 |
| 20260901010534 | 82 | 311 | 0.0 | 0.0 | 0.00 | 0.00 | 0.00 | 44 | 1007.9 |
| 20260901010033 | 82 | 311 | 0.0 | 0.0 | 0.00 | 0.00 | 0.00 | 45 | 1007.7 |
| 20260901005528 | 83 | 311 | 0.0 | 0.0 | 0.00 | 0.00 | 0.00 | 43 | 1007.6 |
| 20260901005024 | 83 | 305 | 1.0 | 1.0 | 0.00 | 0.00 | 0.00 | 44 | 1007.7 |
| 20260901004523 | 83 | 317 | 0.0 | 0.0 | 0.00 | 0.00 | 0.00 | 44 | 1008.0 |
| 20260901004018 | 83 | 277 | 0.0 | 1.0 | 0.00 | 0.00 | 0.00 | 43 | 1007.8 |
| 20260901003514 | 83 | 318 | 0.0 | 0.0 | 0.00 | 0.00 | 0.00 | 44 | 1007.9 |
| 20260901003012 | 83 | 302 | 0.0 | 0.0 | 0.00 | 0.00 | 0.00 | 44 | 1007.9 |
| 20260901002511 | 83 | 207 | 1.0 | 2.0 | 0.00 | 0.00 | 0.00 | 44 | 1008.0 |
| 20260901002006 | 83 | 270 | 1.0 | 2.0 | 0.00 | 0.00 | 0.00 | 43 | 1007.9 |
| 20260901001501 | 83 | 292 | 0.0 | 0.0 | 0.00 | 0.00 | 0.00 | 44 | 1007.9 |
| 20260901000956 | 83 | 295 | 0.0 | 0.0 | 0.00 | 0.00 | 0.00 | 45 | 1007.8 |
| 20260901000451 | 83 | 294 | 0.0 | 0.0 | 0.00 | 0.00 | 0.00 | 45 | 1007.9 |
| 20260831235950 | 83 | 307 | 0.0 | 0.0 | 0.00 | 0.00 | 0.00 | 42 | 1007.8 |
| 20260831235445 | 83 | 310 | 0.0 | 0.0 | 0.00 | 0.00 | 0.00 | 40 | 1008.0 |
| 20260831234941 | 83 | 303 | 0.0 | 0.0 | 0.00 | 0.00 | 0.00 | 40 | 1007.7 |